Location: Newark
(40.1631°N, 15.6720°E)
Time: 13:40:22
(UTC+00:00)

Hubble Space Telescope - Visible Passes

Search period start: 11 December 2019 00:00
Search period end: 21 December 2019 00:00
Orbit: 536 x 540 km, 28.5° (Epoch: 10 December)

Date Brightness Start Highest point End Pass type
(mag) Time Alt. Az. Time Alt. Az. Time Alt. Az.
13 Dec 3.7 05:29:47 10° S 05:31:05 11° SSE 05:32:23 10° SSE visible
14 Dec 3.5 05:18:31 10° SSW 05:20:21 13° SSE 05:22:11 10° SE visible
15 Dec 3.4 05:07:27 10° SSW 05:09:37 14° S 05:11:47 10° SE visible
16 Dec 3.3 04:56:31 10° SSW 04:58:53 15° S 05:01:16 10° SE visible
17 Dec 3.2 04:45:40 10° SSW 04:48:10 16° S 04:50:40 10° SE visible
18 Dec 3.1 04:34:57 10° SW 04:37:27 16° S 04:40:01 10° SE visible
19 Dec 3.0 04:25:04 13° SSW 04:26:43 16° S 04:29:19 10° SE visible
20 Dec 3.0 04:15:09 15° SSW 04:16:01 16° S 04:18:33 10° SE visible
